Regional Weather Roundup
Issued by NWS Columbia, SC

Home | Current Version | Previous Version | Text Only | Print | Product List | Glossary On
Versions: 1 2 3 4 5 6 7 8 9 10 11 12 13 14 15 16 17 18 19 20 21 22 23 24 25 26 27 28 29 30 31 32 33 34 35 36 37 38 39 40 41 42 43 44 45 46 47 48 49 50
000
ASUS42 KCAE 300210
RWRCAE
REGIONAL WEATHER ROUNDUP
NATIONAL WEATHER SERVICE COLUMBIA SC
1000 PM EDT SUN MAY 29 2016

NOTE: "FAIR" INDICATES FEW OR NO CLOUDS BELOW 12,000 FEET WITH NO
SIGNIFICANT WEATHER AND/OR OBSTRUCTIONS TO VISIBILITY.

NOT ALL STATIONS ARE QUALITY CONTROLLED BY THE NATIONAL
WEATHER SERVICE. USE DATA WITH CAUTION...ESPECIALLY
DEWPOINT OBSERVATIONS.

SCZ001>056-GAZ040-063>065-077-300300-
...UPSTATE SOUTH CAROLINA...

CITY           SKY/WX    TMP DP  RH WIND       PRES   REMARKS
ANDERSON       CLOUDY    71  64  78 NE7       30.05S
LIBERTY        CLOUDY    67  65  91 CALM      30.05S
SPARTANBURG    CLOUDY    70  55  60 N5        30.04R
CLEMSON        CLOUDY    72  65  78 NW3       30.07R
GREENVILLE     CLOUDY    71  59  65 NW5       30.06S
GREENWOOD      PTCLDY    69  57  65 N6        30.04R
GREER          CLOUDY    70  59  68 N6        30.04S
ROCK HILL      CLOUDY    71  62  73 NE5       30.03S
CHESTER        CLOUDY    70  61  73 N7        30.03R
LAURENS        PTCLDY    68  59  73 N3        30.03S


...CENTRAL SOUTH CAROLINA...

CITY           SKY/WX    TMP DP  RH WIND       PRES   REMARKS
COLUMBIA APT   CLOUDY    74  65  73 N7        29.97R
COLUMBIA OWENS CLOUDY    72  67  84 VRB6      29.97F
MCENTIRE ANGB  MOCLDY    70  67  92 N9        29.96F
ORANGEBURG     MOCLDY    72  68  87 N9        29.95S
SUMTER SHAW    CLOUDY    71  69  92 N14       29.94R
NEWBERRY       CLOUDY    70  64  83 N6        30.04S
AIKEN          CLOUDY    70  63  78 NW8       30.03R
BARNWELL       CLOUDY    72  72 100 NW3       29.98S
MANNING        RAIN      70  68  94 NE8       29.94R
LANCASTER      PTCLDY    70  66  88 NE7       30.02S
WINNSBORO      PTCLDY    70  64  83 N8G18     30.00R


...EASTERN AND COASTAL SOUTH CAROLINA...

CITY           SKY/WX    TMP DP  RH WIND       PRES   REMARKS
MYRTLE BEACH   CLOUDY    73  64  73 SE9       29.97
N MYRTLE BCH   LGT RAIN  75  70  84 S3        29.97R
CONWAY         CLOUDY    70  70 100 E3        29.97R
MARION         MOCLDY    72  68  88 E5        29.97R
HARTSVILLE     CLOUDY    70  68  94 N9G16     29.98R
FLORENCE       MOCLDY    74  68  81 NE8       29.97R
DARLINGTON     MOCLDY    71  70  96 N13       29.99R
CHARLESTON APT CLOUDY    73  67  81 NE7       29.91R
MOUNT PLEASANT CLOUDY    72  70  94 CALM      29.92R
WALTERBORO     RAIN      72  72 100 N5        29.94R
BEAUFORT       CLOUDY    71  69  93 W12       29.94R


...EASTERN GEORGIA...

CITY           SKY/WX    TMP DP  RH WIND       PRES   REMARKS
AUGUSTA BUSH F MOCLDY    73  63  70 NW9       29.99R
AUGUSTA DANIEL CLOUDY    73  62  68 NW7       30.01R
THOMSON        PTCLDY    68  67  94 NW3       30.08S
WASHINGTON     FAIR      70  66  88 N3        30.04S
CLAXTON        FAIR      70  66  88 SW5       30.00R
SYLVANIA       CLOUDY    71  67  89 NW7       29.99S
STATESBORO     CLOUDY    70  67  90 NW7       29.99R
SAVANNAH       CLOUDY    70  63  78 W9        29.97S


...SOUTHERN NORTH CAROLINA...

CITY           SKY/WX    TMP DP  RH WIND       PRES   REMARKS
CHARLOTTE      PTCLDY    70  61  73 NE10      30.03S
MONROE         CLOUDY    69  62  78 NE10      30.03R
WADESBORO      MOCLDY    69  62  79 N8        30.02S
ROCKINGHAM     CLOUDY    69  67  94 N8        30.01R
RUTHERFORDTON  CLOUDY    65  65  97 NW6       30.08R
ASHEVILLE      CLOUDY    67  59  75 CALM      30.12R

$$



USA.gov is the U.S. government's official web portal to all federal, state and local government web resources and services.